Regional Weather Roundup
Issued by NWS Grand Forks, ND

Home | Current Version | Previous Version | Text Only | Print | Product List | Glossary On
Versions: 1 2 3 4 5 6 7 8 9 10 11 12 13 14 15 16 17 18 19 20 21 22 23 24 25 26 27 28 29 30 31 32 33 34 35 36 37 38 39 40 41 42 43 44 45 46 47 48 49 50
000
ASUS43 KFGF 251110
RWRFGF
PRAIRIE TO PINES  WEATHER ROUNDUP
NATIONAL WEATHER SERVICE EASTERN NORTH DAKOTA/GRAND FORKS ND
600 AM CDT WED APR 25 2018

 **SATELLITE DATA USED TO AUGMENT SKY COVER AT AUTOMATED STATIONS**
 *****  WEATHER ACROSS EASTERN NORTH DAKOTA  *****

CITY           SKY/WX    TMP DP  RH WIND       PRES   REMARKS
GRAND FORKS    FAIR      32  30  92 S10       30.20F WCI  24
GRAND FRKS AFB FAIR      36  28  73 SW12      30.20F
GRAND FRKS NWS   N/A     37  30  74 S6        30.18F
DEVILS LAKE    FAIR      35  28  75 SW10      30.17F
FARGO          FAIR      29  27  92 S8        30.27S WCI  21
WAHPETON ARPT  FAIR      30  27  86 SW6       30.30S WCI  24
$$

 ***** WEATHER ACROSS CENTRAL AND WESTERN NORTH DAKOTA  *****

CITY           SKY/WX    TMP DP  RH WIND       PRES   REMARKS
BISMARCK       FAIR      31  27  85 CALM      30.24F
MINOT          FAIR      42  30  62 SW14      30.12F
JAMESTOWN      FAIR      32  27  81 SW7       30.23F
MINOT AFB      FAIR      41  30  65 SW14      30.10F
GARRISON         N/A     32  28  85 S5        30.17F
WILLISTON      FAIR      38  31  76 SW7       30.12F
DICKINSON      FAIR      33  28  81 S14       30.18F WCI  23
HETTINGER      FAIR      30  24  78 SW8       30.25F WCI  22
$$

 *****  OTHER AIRPORT OBSERVATIONS IN OUR AREA  *****

CITY           SKY/WX    TMP DP  RH WIND       PRES   REMARKS
WALHALLA       NOT AVBL
GRAFTON AIRPOR FAIR      30  27  86 S9        30.19F WCI  22
VALLEY CITY AR FAIR      30  30 100 SW8       30.26F WCI  23
CANDO          FAIR      32  30  93 SW7       30.16F
CAVALIER APRT    N/A     37  28  70 S9        30.14F
GWINNER          N/A     30  30 100 SW9       30.27F WCI  22
SHEYENNE NWR     N/A     27  27 100 W3        29.95S
ROLLA          FAIR      37  27  65 SW16      30.11F
 ***** THE ABOVE OBSERVATIONS ARE NON NWS ARE NOT QUALITY
       CONTROLLED AND MAY MIS-REPORT RAIN FOR SNOW...
$$

  *****  WEATHER ACROSS NORTHERN MINNESOTA  *****

CITY           SKY/WX    TMP DP  RH WIND       PRES   REMARKS
FLAG ISLAND    FAIR      28  23  80 S8        30.17F WCI  20
WARROAD        FAIR      30  25  80 S6        30.19F WCI  24
ROSEAU         FAIR      32  27  80 MISG      30.19F
HALLOCK        FAIR      32  28  86 S10       30.17F WCI  24
THF RVR FALLS  FAIR      31  25  78 S9        30.23F WCI  23
BAUDETTE       FAIR      30  22  72 S5        30.21F
WASKISH        FAIR      21  21 100 CALM      30.23F
CROOKSTON      FAIR      30  27  86 S8        30.23F WCI  23
STEPHEN NDAWN    N/A     36  28  75 S12         N/A
GREENBUSH NDAW   N/A     34  28  80 S7          N/A
$$
  *****  WEATHER ACROSS CENTRAL AND WEST MINNESOTA  *****

CITY           SKY/WX    TMP DP  RH WIND       PRES   REMARKS
FOSSTON        FAIR      25  21  86 S5        30.24F WCI  19
BEMIDJI        FAIR      24  20  84 SW3       30.24S
PARK RAPIDS    FAIR      26  20  77 CALM      30.25F
ELBOW LAKE     FAIR      27  23  87 S6        30.29S WCI  20
WADENA         FAIR      25  21  86 CALM      30.26S
DETROIT LAKES  FAIR      30  28  93 CALM      30.27S
MOORHEAD       FAIR      30  28  93 S5        30.28F
FERGUS FALLS   FAIR      25  21  86 W5        30.28R WCI  19
MORRIS MN      FAIR      28  28 100 CALM      30.28F
STAPLES        FAIR      23  21  93 CALM      30.26F
$$
  *****  WEATHER ELSEWHERE ACROSS MINNESOTA  *****

CITY           SKY/WX    TMP DP  RH WIND       PRES   REMARKS
DULUTH         FAIR      28  21  75 N6        30.24S WCI  22
INTRNTL FALLS  FAIR      21  19  92 CALM      30.22F
ELY            FAIR      19  19 100 CALM      30.24S
CLOQUET        FAIR      27  19  74 N6        30.24F WCI  20
WHEATON        FAIR      30  27  86 CALM      30.32S
BRAINERD       FAIR      26  21  81 CALM      30.26F
HIBBING        FAIR      20  19  96 CALM      30.24F
ALEXANDRIA     FAIR      30  21  69 CALM      30.28S
SAINT CLOUD    FAIR      29  25  85 CALM      30.27F
MINNEAPOLIS    FAIR      36  25  64 N8        30.26R
$$

  *****  WEATHER ACROSS SOUTH DAKOTA  *****

CITY           SKY/WX    TMP DP  RH WIND       PRES   REMARKS
SIOUX FALLS    FAIR      33  27  78 CALM      30.28S
BROOKINGS      FAIR      32  28  85 N5        30.28F
WATERTOWN      FAIR      27  26  96 CALM      30.28F
HURON          FAIR      27  25  92 W6        30.31F WCI  20
SISSETON         N/A     29  26  89 CALM      30.28F
ABERDEEN       FAIR      24  22  91 SW6       30.30F WCI  17
MITCHELL       FAIR      31  28  89 W5        30.32F
PIERRE         FAIR      32  30  92 SW9       30.30F WCI  24
MOBRIDGE       FAIR      33  28  81 SE7       30.26F
RAPID CITY     FAIR      28  21  75 S6        30.29F WCI  22
$$

  *****  SOME WEATHER IN NEARBY STATES *****

CITY           SKY/WX    TMP DP  RH WIND       PRES   REMARKS
GLASGOW MT     FAIR      39  32  76 SE10      30.03F
GREAT FALLS MT FAIR      48  22  35 S18       30.06F
CHEYENNE WY    FAIR      23  21  92 W7        30.33F WCI  15
SCOTTSBLUFF NE FAIR      25  24  96 N3        30.36F
OMAHA NE       CLOUDY    46  41  82 NW10      30.22S
DES MOINES IA  CLOUDY    49  37  63 N8        30.16S
DAVENPORT IA   MOCLDY    47  31  53 NE13      30.12R
CHICAGO IL     MOCLDY    43  31  62 N16       30.08R
EAU CLAIRE WI  FAIR      32  25  75 N5        30.22S
LA CROSSE WI   FAIR      38  34  85 NW9       30.20R
$$

  *****  SOME NATIONAL WEATHER *****

CITY           SKY/WX    TMP DP  RH WIND       PRES   REMARKS
LA GUARDIA NY  RAIN      51  49  92 NE16      29.96F VSB 1/2
RALEIGH NC     CLOUDY    60  60 100 SW5       29.74R FOG
ATLANTA GA     FAIR      54  54 100 W7        29.90R
NEW ORLEANS LA FAIR      58  58 100 CALM      30.06R
OKLAHOMA CITY  CLOUDY    48  44  86 N24       30.17F
ALBUQUERQUE NM FAIR      48  34  58 E28G33    30.23R
SALT LAKE CITY FAIR      49  28  44 S13       30.24S
LOS ANGELES CA CLOUDY    56  51  84 SE5       30.06S
BOISE ID       FAIR      49  31  49 SE10      30.17S
SEATTLE WA     FAIR      55  37  50 N10       30.07S
$$

*** WEATHER ACROSS MANITOBA...SASKATCHEWAN AND ONTARIO ***
                ***ONTARIO***

CITY           SKY/WX    TMP DP  RH WIND       PRES   REMARKS
GERALDTON      PTCLDY    19  18  93 CALM      30.19F
THUNDER BAY    CLEAR     23  21  93 W5        30.24F WCI  17
SIOUX LOOKOUT  PTCLDY    25  21  86 S6        30.16F WCI  18
TORONTO        LGT RAIN  48  46  93 E9        29.91S FOG
BIG TROUT LK   PTCLDY    32  23  69 S9        29.91F WCI  24
PICKLE LAKE    PTCLDY    27  19  74 S9        30.10  WCI  17
DRYDEN         CLEAR     28  21  74 S10       30.16F WCI  19
KENORA         PTCLDY    30  21  69 S10       30.15F WCI  21
$$
                *** MANITOBA***

CITY           SKY/WX    TMP DP  RH WIND       PRES   REMARKS
BRANDON        PTCLDY    37  30  75 SW12      30.03F
DAUPHIN        MOCLDY    50  28  43 SW20G28   29.91F
ISLAND LAKE    PTCLDY    41  25  52 SW12G23   29.76F
PILOT MOUND      N/A     34  27  75 S12         N/A
THE PAS        CLOUDY    46  30  53 W10       29.75S
THOMPSON       CLOUDY    36  30  80 S2        29.65F
WINNIPEG       MOCLDY    39  25  56 S23       30.06F
LYNN LAKE      MOCLDY    39  32  75 NW10G17   29.69R
CHURCHILL      LGT RAIN  36  34  93 NW15      29.46S
GILLAM         PTCLDY    39  28  65 SW10      29.60F
$$
                ***SASKATCHEWAN***

CITY           SKY/WX    TMP DP  RH WIND       PRES   REMARKS
ESTEVAN        CLOUDY    37  30  75 SW12      30.05F
KINDERSLEY     CLOUDY    41  30  65 N14       29.88R
LLOYDMINSTER   PTCLDY    46  32  57 NW12G17   29.94S
PRINCE ALBERT  CLOUDY    39  30  70 SW5       29.85S
REGINA         MOCLDY    39  28  65 S12       29.92F
YORKTON        MOCLDY    45  30  57 SW16G23   29.88F
N. BATTLEFORD  MOCLDY    39  30  70 SW5       29.92R
LA RONGE       MOCLDY    45  27  49 NW6       29.86R
SASKATOON      CLOUDY    37  30  75 NW7       29.86S
SWIFT CURRENT  MOCLDY    48  25  40 SW20G25   29.88F
$$
NOTE: THESE ARE AUTOMATED STATIONS WITH LIMITED QUALITY CONTROL
      "FAIR" INDICATES FEW OR NO CLOUDS BELOW 12,000 FEET WITH NO
      SIGNIFICANT WEATHER AND/OR OBSTRUCTIONS TO VISIBILITY.
      SKY/WX - SKY CONDITION AND SIGNIFICANT WEATHER.
      TMP - AIR TEMPERATURE.    DP   - DEWPOINT TEMPERATURE.
      RH  - RELATIVE HUMIDITY.  PRES - PRESSURE.
      HX  - HEAT INDEX.         WCI  - WIND CHILL INDEX.
$



USA.gov is the U.S. government's official web portal to all federal, state and local government web resources and services.